UAE345 WMKK-OMDB

Flight info

Callsign UAE345
Flight time 6h 33m
Altitude 34000
Route IBUKU1D IBUKU Y504 GUNIP N571 IGOGU/N0487F360 N571 SUGID/N0477F380 N571 VUSET A454 PASOV B540 KUPMA/N0405F240 B540 MIVEK P574 IMPED
Aircraft B77W/H-SDE1E2E3FGHIJ2J3J4J5M1RWXY/LB1D1

Departure

Time 2026-04-22 08:42
Airport Kuala Lumpur International Airport (WMKK)

Arrival

Time 2026-04-22 15:16
Airport Dubai International Airport (OMDB)
Time Latitude Longitude Altitude Speed Heading
2026-04-22 07:03 2.74886 101.71635 86 ft 0 kts 326°
2026-04-22 07:06 2.75013 101.71627 85 ft 0 kts 236°
2026-04-22 07:09 2.75057 101.71151 86 ft 0 kts 145°
2026-04-22 07:10 2.74527 101.71574 86 ft 0 kts 326°
2026-04-22 07:10 2.75057 101.71151 86 ft 0 kts 145°
2026-04-22 08:24 2.75066 101.71144 81 ft 4 kts 148°
2026-04-22 08:25 2.75089 101.71132 86 ft 4 kts 162°
2026-04-22 08:25 2.75115 101.71126 85 ft 4 kts 175°
2026-04-22 08:25 2.75141 101.71125 85 ft 3 kts 177°
2026-04-22 08:25 2.75144 101.71125 84 ft 0 kts 177°
2026-04-22 08:30 2.75120 101.71112 86 ft 8 kts 227°
2026-04-22 08:31 2.75106 101.71056 84 ft 12 kts 248°
2026-04-22 08:31 2.75052 101.70966 84 ft 15 kts 236°
2026-04-22 08:31 2.74930 101.70789 67 ft 16 kts 234°
2026-04-22 08:32 2.74864 101.70694 68 ft 17 kts 236°
2026-04-22 08:32 2.74799 101.70598 62 ft 17 kts 237°
2026-04-22 08:32 2.74735 101.70502 65 ft 17 kts 236°
2026-04-22 08:32 2.74672 101.70405 67 ft 17 kts 236°
2026-04-22 08:33 2.74607 101.70309 64 ft 17 kts 236°
2026-04-22 08:33 2.74544 101.70212 63 ft 17 kts 236°
2026-04-22 08:33 2.74476 101.70118 64 ft 17 kts 232°
2026-04-22 08:33 2.74372 101.70114 60 ft 17 kts 150°
2026-04-22 08:34 2.74274 101.70176 62 ft 17 kts 148°
2026-04-22 08:34 2.74177 101.70239 62 ft 17 kts 147°
2026-04-22 08:34 2.74081 101.70304 60 ft 17 kts 146°
2026-04-22 08:34 2.73984 101.70368 66 ft 17 kts 147°
2026-04-22 08:35 2.73889 101.70433 68 ft 17 kts 147°
2026-04-22 08:35 2.73793 101.70498 84 ft 17 kts 145°
2026-04-22 08:35 2.73697 101.70562 85 ft 17 kts 146°
2026-04-22 08:35 2.73600 101.70626 85 ft 17 kts 146°
2026-04-22 08:36 2.73504 101.70691 84 ft 17 kts 146°
2026-04-22 08:36 2.73408 101.70755 85 ft 17 kts 146°
2026-04-22 08:36 2.73312 101.70820 85 ft 17 kts 146°
2026-04-22 08:36 2.73216 101.70885 84 ft 17 kts 146°
2026-04-22 08:37 2.73122 101.70947 85 ft 17 kts 146°
2026-04-22 08:37 2.73025 101.71013 84 ft 17 kts 146°
2026-04-22 08:37 2.72929 101.71077 84 ft 17 kts 146°
2026-04-22 08:37 2.72833 101.71141 84 ft 17 kts 146°
2026-04-22 08:38 2.72737 101.71206 84 ft 17 kts 146°
2026-04-22 08:38 2.72641 101.71270 84 ft 17 kts 146°
2026-04-22 08:38 2.72545 101.71334 83 ft 17 kts 146°
2026-04-22 08:38 2.72448 101.71399 83 ft 17 kts 146°
2026-04-22 08:39 2.72345 101.71443 81 ft 17 kts 191°
2026-04-22 08:39 2.72235 101.71434 69 ft 17 kts 156°
2026-04-22 08:39 2.72136 101.71494 71 ft 17 kts 146°
2026-04-22 08:39 2.72040 101.71559 69 ft 17 kts 146°
2026-04-22 08:40 2.71944 101.71624 64 ft 17 kts 146°
2026-04-22 08:40 2.71847 101.71686 65 ft 17 kts 148°
2026-04-22 08:40 2.71751 101.71752 63 ft 15 kts 150°
2026-04-22 08:40 2.71679 101.71739 60 ft 8 kts 226°
2026-04-22 08:41 2.71653 101.71707 55 ft 7 kts 233°
2026-04-22 08:41 2.71622 101.71658 56 ft 8 kts 246°
2026-04-22 08:41 2.71634 101.71606 53 ft 0 kts 313°
2026-04-22 08:41 2.71722 101.71540 54 ft 58 kts 326°
2026-04-22 08:42 2.72367 101.71108 56 ft 163 kts 326°
2026-04-22 08:42 2.73548 101.70313 416 ft 228 kts 326°
2026-04-22 08:42 2.74796 101.69425 1884 ft 210 kts 321°
2026-04-22 08:42 2.75858 101.68411 2557 ft 216 kts 307°
2026-04-22 08:43 2.76621 101.67086 2872 ft 228 kts 303°
2026-04-22 08:43 2.77321 101.66270 2970 ft 240 kts 319°
2026-04-22 08:43 2.78610 101.65089 3229 ft 261 kts 316°
2026-04-22 08:43 2.79898 101.63775 3853 ft 268 kts 314°
2026-04-22 08:44 2.81178 101.62383 4562 ft 274 kts 312°
2026-04-22 08:44 2.82437 101.60946 5347 ft 275 kts 311°
2026-04-22 08:44 2.83683 101.59486 6155 ft 277 kts 311°
2026-04-22 08:44 2.84933 101.58007 6870 ft 279 kts 311°
2026-04-22 08:45 2.86190 101.56514 7592 ft 282 kts 311°
2026-04-22 08:45 2.87509 101.55067 8258 ft 283 kts 319°
2026-04-22 08:45 2.89075 101.53844 8914 ft 286 kts 324°
2026-04-22 08:45 2.90713 101.52707 9657 ft 288 kts 325°
2026-04-22 08:46 2.92375 101.51567 10275 ft 292 kts 325°
2026-04-22 08:46 2.94096 101.50379 10596 ft 312 kts 325°
2026-04-22 08:46 2.95944 101.49087 10739 ft 336 kts 324°
2026-04-22 08:46 2.97919 101.47693 10934 ft 358 kts 324°
2026-04-22 08:47 2.99994 101.46218 11402 ft 371 kts 324°
2026-04-22 08:47 3.02109 101.44708 12190 ft 374 kts 324°
2026-04-22 08:47 3.04244 101.43183 12979 ft 380 kts 324°
2026-04-22 08:47 3.06404 101.41636 13765 ft 384 kts 323°
2026-04-22 08:48 3.08583 101.40075 14487 ft 388 kts 323°
2026-04-22 08:48 3.10795 101.38491 15133 ft 394 kts 324°
2026-04-22 08:48 3.13037 101.36885 15768 ft 399 kts 323°
2026-04-22 08:48 3.15073 101.35059 16175 ft 401 kts 309°
2026-04-22 08:49 3.16805 101.32843 16678 ft 408 kts 307°
2026-04-22 08:49 3.18542 101.30532 17352 ft 412 kts 306°
2026-04-22 08:49 3.20250 101.28257 17953 ft 417 kts 307°
2026-04-22 08:49 3.22011 101.25930 18479 ft 422 kts 307°
2026-04-22 08:50 3.23801 101.23584 19018 ft 426 kts 307°
2026-04-22 08:50 3.25621 101.21215 19503 ft 432 kts 307°
2026-04-22 08:50 3.27468 101.18821 19976 ft 437 kts 307°
2026-04-22 08:50 3.29341 101.16400 20468 ft 442 kts 308°
2026-04-22 08:51 3.31228 101.13963 20999 ft 445 kts 308°
2026-04-22 08:51 3.33135 101.11500 21520 ft 449 kts 308°
2026-04-22 08:51 3.35056 101.09019 22012 ft 453 kts 308°
2026-04-22 08:51 3.36992 101.06519 22493 ft 457 kts 308°
2026-04-22 08:52 3.38944 101.03996 22971 ft 461 kts 308°
2026-04-22 08:52 3.40914 101.01450 23430 ft 464 kts 308°
2026-04-22 08:52 3.42900 100.98882 23801 ft 468 kts 308°
2026-04-22 08:52 3.44900 100.96297 24179 ft 471 kts 308°
2026-04-22 08:53 3.46912 100.93696 24580 ft 474 kts 308°
2026-04-22 08:53 3.48937 100.91077 24969 ft 477 kts 308°
2026-04-22 08:53 3.50974 100.88443 25345 ft 480 kts 308°
2026-04-22 08:53 3.53023 100.85793 25726 ft 483 kts 308°
2026-04-22 08:54 3.55083 100.83129 26082 ft 486 kts 308°
2026-04-22 08:54 3.57157 100.80446 26445 ft 489 kts 308°
2026-04-22 08:54 3.59245 100.77745 26803 ft 492 kts 308°
2026-04-22 08:54 3.61310 100.75008 27160 ft 494 kts 307°
2026-04-22 08:55 3.63347 100.72224 27510 ft 497 kts 307°
2026-04-22 08:55 3.65375 100.69413 27860 ft 499 kts 306°
2026-04-22 08:55 3.67411 100.66583 28176 ft 502 kts 307°
2026-04-22 08:55 3.69458 100.63741 28465 ft 505 kts 307°
2026-04-22 08:56 3.71525 100.60882 28770 ft 507 kts 307°
2026-04-22 08:56 3.73599 100.58023 29072 ft 509 kts 307°
2026-04-22 08:56 3.75689 100.55148 29423 ft 510 kts 307°
2026-04-22 08:56 3.77775 100.52281 29839 ft 509 kts 307°
2026-04-22 08:57 3.79857 100.49420 30232 ft 508 kts 307°
2026-04-22 08:57 3.81934 100.46566 30609 ft 507 kts 307°
2026-04-22 08:57 3.84008 100.43716 30983 ft 506 kts 307°
2026-04-22 08:57 3.86053 100.40905 31349 ft 506 kts 307°
2026-04-22 08:58 3.88120 100.38062 31712 ft 505 kts 307°
2026-04-22 08:58 3.90186 100.35220 32072 ft 505 kts 308°
2026-04-22 08:58 3.92253 100.32378 32437 ft 504 kts 308°
2026-04-22 08:58 3.94312 100.29544 32808 ft 503 kts 308°
2026-04-22 08:59 3.96370 100.26714 33179 ft 502 kts 308°
2026-04-22 08:59 3.98425 100.23886 33538 ft 502 kts 308°
2026-04-22 08:59 4.00478 100.21061 33885 ft 501 kts 308°
2026-04-22 08:59 4.02527 100.18241 34189 ft 500 kts 308°
2026-04-22 09:00 4.04572 100.15426 34505 ft 499 kts 308°
2026-04-22 09:00 4.06613 100.12617 34834 ft 498 kts 307°
2026-04-22 09:00 4.08649 100.09814 35133 ft 497 kts 307°
2026-04-22 09:00 4.10679 100.07019 35435 ft 496 kts 307°
2026-04-22 09:01 4.12711 100.04222 35700 ft 496 kts 307°
2026-04-22 09:01 4.16772 99.98630 35785 ft 496 kts 307°
2026-04-22 09:02 4.20827 99.93045 35791 ft 496 kts 307°
2026-04-22 09:02 4.24883 99.87457 35792 ft 495 kts 307°
2026-04-22 09:03 4.28935 99.81873 35790 ft 495 kts 307°
2026-04-22 09:03 4.32987 99.76288 35789 ft 496 kts 307°
2026-04-22 09:04 4.37042 99.70699 35794 ft 496 kts 307°
2026-04-22 09:04 4.41096 99.65109 35788 ft 496 kts 307°
2026-04-22 09:05 4.45155 99.59510 35823 ft 496 kts 307°
2026-04-22 09:05 4.49215 99.53912 35801 ft 497 kts 308°
2026-04-22 09:06 4.53629 99.48598 35803 ft 496 kts 313°
2026-04-22 09:06 4.58185 99.43410 35794 ft 496 kts 313°
2026-04-22 09:07 4.62743 99.38211 35793 ft 496 kts 313°
2026-04-22 09:07 4.67286 99.32997 35796 ft 497 kts 312°
2026-04-22 09:08 4.71821 99.27775 35794 ft 497 kts 312°
2026-04-22 09:08 4.76357 99.22550 35795 ft 497 kts 313°
2026-04-22 09:09 4.80896 99.17322 35795 ft 497 kts 313°
2026-04-22 09:09 4.85435 99.12094 35791 ft 497 kts 313°
2026-04-22 09:10 4.89949 99.06893 35791 ft 497 kts 313°
2026-04-22 09:10 4.94491 99.01659 35795 ft 498 kts 313°
2026-04-22 09:11 4.99037 98.96420 35795 ft 498 kts 313°
2026-04-22 09:11 5.03585 98.91176 35796 ft 498 kts 313°
2026-04-22 09:12 5.08136 98.85929 35796 ft 498 kts 313°
2026-04-22 09:12 5.12686 98.80680 35793 ft 498 kts 312°
2026-04-22 09:13 5.17236 98.75431 35792 ft 498 kts 312°
2026-04-22 09:13 5.21784 98.70183 35794 ft 498 kts 312°
2026-04-22 09:14 5.26333 98.64933 35795 ft 498 kts 312°
2026-04-22 09:14 5.30950 98.59602 35793 ft 498 kts 312°
2026-04-22 09:15 5.35427 98.54432 35792 ft 498 kts 312°
2026-04-22 09:15 5.39972 98.49183 35794 ft 498 kts 312°
2026-04-22 09:16 5.44519 98.43929 35795 ft 498 kts 312°
2026-04-22 09:16 5.49066 98.38674 35793 ft 499 kts 312°
2026-04-22 09:17 5.53613 98.33418 35793 ft 498 kts 312°
2026-04-22 09:17 5.58159 98.28161 35791 ft 498 kts 312°
2026-04-22 09:18 5.62705 98.22904 35793 ft 498 kts 312°
2026-04-22 09:18 5.67248 98.17648 35791 ft 498 kts 312°
2026-04-22 09:19 5.71793 98.12389 35794 ft 499 kts 312°
2026-04-22 09:19 5.76307 98.07164 35792 ft 498 kts 312°
2026-04-22 09:20 5.80848 98.01906 35792 ft 498 kts 312°
2026-04-22 09:20 5.85421 97.96610 35790 ft 498 kts 312°
2026-04-22 09:21 5.89960 97.91352 35791 ft 498 kts 312°
2026-04-22 09:21 5.94469 97.86128 35793 ft 498 kts 312°
2026-04-22 09:22 5.99006 97.80868 35791 ft 498 kts 312°
2026-04-22 09:22 6.03544 97.75606 35792 ft 498 kts 312°
2026-04-22 09:23 6.08081 97.70344 35796 ft 498 kts 312°
2026-04-22 09:23 6.12618 97.65079 35794 ft 498 kts 312°
2026-04-22 09:24 6.16878 97.59589 35791 ft 499 kts 302°
2026-04-22 09:24 6.19864 97.53293 35793 ft 501 kts 288°
2026-04-22 09:25 6.21854 97.46586 35801 ft 501 kts 286°
2026-04-22 09:25 6.23767 97.39848 35794 ft 501 kts 286°
2026-04-22 09:26 6.25715 97.33123 35793 ft 501 kts 287°
2026-04-22 09:26 6.27692 97.26403 35790 ft 501 kts 287°
2026-04-22 09:27 6.29674 97.19686 35792 ft 501 kts 287°
2026-04-22 09:27 6.31655 97.12965 35794 ft 502 kts 287°
2026-04-22 09:28 6.33633 97.06243 35794 ft 501 kts 287°
2026-04-22 09:28 6.35607 96.99526 35795 ft 501 kts 287°
2026-04-22 09:29 6.37582 96.92806 35794 ft 501 kts 287°
2026-04-22 09:29 6.39222 96.87223 35791 ft 501 kts 287°
2026-04-22 09:30 6.41196 96.80501 35793 ft 501 kts 287°
2026-04-22 09:30 6.43168 96.73779 35794 ft 501 kts 287°
2026-04-22 09:31 6.45460 96.65966 35795 ft 501 kts 287°
2026-04-22 09:31 6.47112 96.60329 35791 ft 501 kts 286°
2026-04-22 09:32 6.49082 96.53605 35794 ft 501 kts 287°
2026-04-22 09:32 6.51353 96.46989 35790 ft 501 kts 295°
2026-04-22 09:33 6.54437 96.40709 35798 ft 501 kts 297°
2026-04-22 09:33 6.57568 96.34444 35794 ft 501 kts 297°
2026-04-22 09:34 6.60666 96.28159 35796 ft 501 kts 296°
2026-04-22 09:34 6.63741 96.21869 35797 ft 501 kts 296°
2026-04-22 09:35 6.68335 96.12469 35796 ft 501 kts 296°
2026-04-22 09:35 6.71411 96.06176 35791 ft 501 kts 296°
2026-04-22 09:36 6.74487 95.99881 35795 ft 502 kts 296°
2026-04-22 09:36 6.77569 95.93582 35798 ft 502 kts 296°
2026-04-22 09:37 6.80659 95.87287 35798 ft 502 kts 296°
2026-04-22 09:37 6.83748 95.80992 35793 ft 502 kts 296°
2026-04-22 09:38 6.86834 95.74695 35797 ft 502 kts 296°
2026-04-22 09:38 6.89918 95.68398 35795 ft 502 kts 296°
2026-04-22 09:39 6.93000 95.62103 35795 ft 502 kts 296°
2026-04-22 09:39 6.96084 95.55802 35797 ft 502 kts 296°
2026-04-22 09:40 6.99144 95.49545 35797 ft 502 kts 296°
2026-04-22 09:40 7.02149 95.43400 35796 ft 502 kts 296°
2026-04-22 09:41 7.05230 95.37098 35793 ft 502 kts 296°
2026-04-22 09:41 7.08308 95.30797 35794 ft 501 kts 296°
2026-04-22 09:42 7.11386 95.24496 35795 ft 501 kts 296°
2026-04-22 09:42 7.14461 95.18196 35793 ft 501 kts 296°
2026-04-22 09:43 7.17535 95.11897 35794 ft 501 kts 296°
2026-04-22 09:43 7.20612 95.05590 35793 ft 501 kts 296°
2026-04-22 09:44 7.23685 94.99287 35794 ft 501 kts 296°
2026-04-22 09:44 7.26756 94.92985 35796 ft 501 kts 296°
2026-04-22 09:45 7.29825 94.86686 35794 ft 501 kts 296°
2026-04-22 09:45 7.32891 94.80390 35795 ft 501 kts 296°
2026-04-22 09:46 7.35960 94.74086 35798 ft 501 kts 296°
2026-04-22 09:46 7.39003 94.67831 35799 ft 501 kts 296°
2026-04-22 09:47 7.42067 94.61531 35798 ft 501 kts 296°
2026-04-22 09:47 7.45130 94.55230 35798 ft 501 kts 296°
2026-04-22 09:48 7.48190 94.48931 35801 ft 500 kts 296°
2026-04-22 09:48 7.51249 94.42633 35800 ft 500 kts 296°
2026-04-22 09:49 7.54202 94.36282 35797 ft 500 kts 294°
2026-04-22 09:49 7.57020 94.29872 35801 ft 500 kts 294°
2026-04-22 09:50 7.59838 94.23464 35800 ft 500 kts 294°
2026-04-22 09:50 7.62681 94.17059 35804 ft 500 kts 294°
2026-04-22 09:51 7.65531 94.10661 35801 ft 500 kts 294°
2026-04-22 09:51 7.68381 94.04261 35803 ft 500 kts 294°
2026-04-22 09:52 7.71228 93.97861 35802 ft 500 kts 294°
2026-04-22 09:52 7.74075 93.91456 35805 ft 500 kts 294°
2026-04-22 09:53 7.76900 93.85097 35807 ft 500 kts 294°
2026-04-22 09:53 7.79764 93.78649 35802 ft 501 kts 294°
2026-04-22 09:54 7.82607 93.72242 35805 ft 501 kts 294°
2026-04-22 09:54 7.85431 93.65877 35799 ft 500 kts 294°
2026-04-22 09:55 7.88273 93.59467 35807 ft 500 kts 294°
2026-04-22 09:55 7.91112 93.53062 35802 ft 500 kts 294°
2026-04-22 09:56 7.93956 93.46655 35806 ft 500 kts 294°
2026-04-22 09:56 7.96823 93.40258 35807 ft 500 kts 294°
2026-04-22 09:57 7.99693 93.33860 35801 ft 501 kts 294°
2026-04-22 09:57 8.02557 93.27462 35809 ft 500 kts 294°
2026-04-22 09:58 8.05418 93.21062 35804 ft 500 kts 294°
2026-04-22 09:58 8.08277 93.14663 35800 ft 500 kts 294°
2026-04-22 09:59 8.11135 93.08263 35801 ft 500 kts 294°
2026-04-22 09:59 8.13991 93.01867 35805 ft 500 kts 294°
2026-04-22 10:00 8.16844 92.95472 35802 ft 500 kts 294°
2026-04-22 10:00 8.19696 92.89077 35807 ft 500 kts 294°
2026-04-22 10:01 8.22548 92.82678 35804 ft 499 kts 294°
2026-04-22 10:01 8.25396 92.76284 35803 ft 499 kts 294°
2026-04-22 10:02 8.28242 92.69895 35804 ft 499 kts 294°
2026-04-22 10:02 8.31088 92.63500 35803 ft 499 kts 294°
2026-04-22 10:03 8.33931 92.57109 35802 ft 499 kts 294°
2026-04-22 10:03 8.36773 92.50716 35802 ft 499 kts 294°
2026-04-22 10:04 8.39614 92.44324 35803 ft 499 kts 294°
2026-04-22 10:04 8.42451 92.37935 35799 ft 498 kts 294°
2026-04-22 10:05 8.45267 92.31592 35804 ft 498 kts 294°
2026-04-22 10:05 8.48099 92.25208 35804 ft 498 kts 294°
2026-04-22 10:06 8.50929 92.18827 35801 ft 497 kts 294°
2026-04-22 10:06 8.53754 92.12453 35801 ft 497 kts 294°
2026-04-22 10:07 8.56575 92.06083 35804 ft 497 kts 294°
2026-04-22 10:07 8.59395 91.99715 35802 ft 496 kts 294°
2026-04-22 10:08 8.62312 91.93397 35802 ft 496 kts 295°
2026-04-22 10:08 8.65305 91.87124 35800 ft 496 kts 295°
2026-04-22 10:09 8.68291 91.80848 35802 ft 495 kts 295°
2026-04-22 10:09 8.71259 91.74564 35799 ft 495 kts 295°
2026-04-22 10:10 8.74216 91.68285 35798 ft 495 kts 295°
2026-04-22 10:10 8.77171 91.62000 35802 ft 495 kts 295°
2026-04-22 10:11 8.80124 91.55721 35803 ft 495 kts 295°
2026-04-22 10:11 8.83079 91.49436 35802 ft 495 kts 295°
2026-04-22 10:12 8.86032 91.43153 35799 ft 495 kts 295°
2026-04-22 10:12 8.88985 91.36865 35800 ft 495 kts 295°
2026-04-22 10:13 8.91939 91.30574 35800 ft 495 kts 295°
2026-04-22 10:13 8.94890 91.24283 35800 ft 495 kts 295°
2026-04-22 10:14 8.97843 91.17986 35803 ft 495 kts 295°
2026-04-22 10:14 9.00790 91.11698 35800 ft 495 kts 295°
2026-04-22 10:15 9.03738 91.05406 35800 ft 495 kts 295°
2026-04-22 10:15 9.06683 90.99115 35797 ft 495 kts 295°
2026-04-22 10:16 9.09627 90.92824 35799 ft 495 kts 295°
2026-04-22 10:16 9.12549 90.86577 35799 ft 494 kts 294°
2026-04-22 10:17 9.15491 90.80284 35803 ft 495 kts 294°
2026-04-22 10:17 9.18430 90.73994 35798 ft 495 kts 294°
2026-04-22 10:18 9.21368 90.67701 35800 ft 494 kts 294°
2026-04-22 10:18 9.24305 90.61410 35803 ft 494 kts 294°
2026-04-22 10:19 9.27239 90.55118 35801 ft 494 kts 294°
2026-04-22 10:19 9.29677 90.49890 35799 ft 494 kts 294°
2026-04-22 10:20 9.32609 90.43597 35803 ft 494 kts 294°
2026-04-22 10:20 9.35540 90.37305 35798 ft 494 kts 294°
2026-04-22 10:21 9.38469 90.31012 35802 ft 494 kts 294°
2026-04-22 10:21 9.41399 90.24714 35801 ft 494 kts 294°
2026-04-22 10:22 9.44327 90.18418 35804 ft 494 kts 294°
2026-04-22 10:22 9.47253 90.12121 35803 ft 494 kts 294°
2026-04-22 10:23 9.50177 90.05825 35805 ft 494 kts 294°
2026-04-22 10:23 9.53103 89.99522 35804 ft 494 kts 294°
2026-04-22 10:24 9.56007 89.93263 35804 ft 494 kts 294°
2026-04-22 10:24 9.58927 89.86966 35805 ft 494 kts 294°
2026-04-22 10:25 9.61846 89.80668 35802 ft 494 kts 294°
2026-04-22 10:25 9.64762 89.74372 35805 ft 493 kts 294°
2026-04-22 10:26 9.67676 89.68077 35804 ft 493 kts 294°
2026-04-22 10:26 9.70586 89.61786 35802 ft 493 kts 294°
2026-04-22 10:27 9.73495 89.55495 35801 ft 493 kts 294°
2026-04-22 10:27 9.76403 89.49202 35804 ft 493 kts 294°
2026-04-22 10:28 9.79309 89.42911 35802 ft 493 kts 294°
2026-04-22 10:28 9.82211 89.36622 35805 ft 493 kts 294°
2026-04-22 10:29 9.85113 89.30332 35804 ft 492 kts 294°
2026-04-22 10:29 9.88015 89.24039 35799 ft 492 kts 294°
2026-04-22 10:30 9.90914 89.17747 35799 ft 492 kts 294°
2026-04-22 10:30 9.93789 89.11502 35804 ft 492 kts 294°
2026-04-22 10:31 9.96684 89.05213 35806 ft 492 kts 294°
2026-04-22 10:31 9.99580 88.98918 35802 ft 492 kts 294°
2026-04-22 10:32 10.02475 88.92620 35802 ft 492 kts 294°
2026-04-22 10:32 10.05366 88.86327 35806 ft 492 kts 294°
2026-04-22 10:33 10.08256 88.80032 35802 ft 492 kts 294°
2026-04-22 10:33 10.11145 88.73737 35803 ft 492 kts 293°
2026-04-22 10:34 10.14031 88.67442 35805 ft 492 kts 293°
2026-04-22 10:34 10.16917 88.61146 35802 ft 492 kts 293°
2026-04-22 10:35 10.19802 88.54847 35802 ft 492 kts 293°
2026-04-22 10:35 10.22773 88.48588 35803 ft 492 kts 295°
2026-04-22 10:36 10.25931 88.42412 35805 ft 492 kts 296°
2026-04-22 10:36 10.29100 88.36249 35803 ft 492 kts 296°
2026-04-22 10:37 10.33802 88.26979 35805 ft 492 kts 295°
2026-04-22 10:38 10.36920 88.20792 35803 ft 492 kts 295°
2026-04-22 10:38 10.40036 88.14602 35802 ft 492 kts 295°
2026-04-22 10:39 10.43152 88.08414 35804 ft 492 kts 295°
2026-04-22 10:39 10.46267 88.02226 35801 ft 492 kts 295°
2026-04-22 10:40 10.49359 87.96079 35800 ft 492 kts 295°
2026-04-22 10:40 10.52469 87.89894 35804 ft 492 kts 295°
2026-04-22 10:41 10.55580 87.83703 35803 ft 492 kts 295°
2026-04-22 10:41 10.58689 87.77512 35804 ft 492 kts 295°
2026-04-22 10:42 10.61796 87.71321 35803 ft 492 kts 295°
2026-04-22 10:42 10.64901 87.65131 35801 ft 492 kts 295°
2026-04-22 10:43 10.68005 87.58939 35801 ft 491 kts 295°
2026-04-22 10:43 10.71105 87.52750 35798 ft 491 kts 295°
2026-04-22 10:44 10.74206 87.46558 35804 ft 491 kts 295°
2026-04-22 10:44 10.77304 87.40366 35803 ft 491 kts 295°
2026-04-22 10:45 10.80401 87.34174 35805 ft 491 kts 295°
2026-04-22 10:45 10.83495 87.27983 35803 ft 491 kts 295°
2026-04-22 10:46 10.86586 87.21795 35803 ft 490 kts 295°
2026-04-22 10:46 10.89673 87.15611 35805 ft 490 kts 295°
2026-04-22 10:47 10.92758 87.09427 35803 ft 490 kts 295°
2026-04-22 10:47 10.95840 87.03246 35807 ft 490 kts 295°
2026-04-22 10:48 10.98896 86.97113 35805 ft 489 kts 295°
2026-04-22 10:48 11.01972 86.90934 35801 ft 489 kts 295°
2026-04-22 10:49 11.05045 86.84759 35802 ft 489 kts 295°
2026-04-22 10:49 11.08116 86.78584 35790 ft 489 kts 295°
2026-04-22 10:50 11.11182 86.72416 35804 ft 488 kts 295°
2026-04-22 10:50 11.14248 86.66244 35803 ft 488 kts 295°
2026-04-22 10:51 11.17309 86.60078 35804 ft 488 kts 294°
2026-04-22 10:51 11.20369 86.53910 35801 ft 488 kts 294°
2026-04-22 10:52 11.23425 86.47746 35802 ft 487 kts 294°
2026-04-22 10:52 11.26480 86.41581 35806 ft 487 kts 294°
2026-04-22 10:53 11.29530 86.35423 35787 ft 487 kts 294°
2026-04-22 10:53 11.32588 86.29242 35807 ft 489 kts 294°
2026-04-22 10:54 11.35650 86.23051 35801 ft 489 kts 294°
2026-04-22 10:54 11.38713 86.16853 35805 ft 489 kts 294°
2026-04-22 10:55 11.41768 86.10669 35801 ft 489 kts 294°
2026-04-22 10:55 11.44807 86.04513 35794 ft 489 kts 294°
2026-04-22 10:56 11.47862 85.98320 35808 ft 489 kts 294°
2026-04-22 10:56 11.50916 85.92123 35805 ft 489 kts 294°
2026-04-22 10:57 11.53973 85.85919 35789 ft 490 kts 294°
2026-04-22 10:57 11.57028 85.79714 35804 ft 490 kts 294°
2026-04-22 10:58 11.60082 85.73507 35807 ft 489 kts 294°
2026-04-22 10:58 11.63133 85.67301 35805 ft 490 kts 294°
2026-04-22 10:59 11.66185 85.61090 35789 ft 490 kts 294°
2026-04-22 10:59 11.69236 85.54878 35790 ft 490 kts 294°
2026-04-22 11:00 11.72284 85.48666 35805 ft 489 kts 294°
2026-04-22 11:00 11.75329 85.42458 35793 ft 489 kts 294°
2026-04-22 11:01 11.78374 85.36245 35791 ft 489 kts 294°
2026-04-22 11:01 11.81414 85.30038 35795 ft 489 kts 294°
2026-04-22 11:02 11.84451 85.23831 35808 ft 489 kts 294°
2026-04-22 11:02 11.87485 85.17630 35792 ft 488 kts 294°
2026-04-22 11:03 11.90518 85.11423 35789 ft 488 kts 294°
2026-04-22 11:03 11.93548 85.05220 35796 ft 488 kts 294°
2026-04-22 11:04 11.96577 84.99015 35792 ft 488 kts 294°
2026-04-22 11:04 11.99601 84.92816 35802 ft 488 kts 294°
2026-04-22 11:05 12.02625 84.86612 35794 ft 488 kts 293°
2026-04-22 11:05 12.05646 84.80411 35795 ft 488 kts 293°
2026-04-22 11:06 12.08646 84.74248 35793 ft 487 kts 293°
2026-04-22 11:06 12.11662 84.68048 35794 ft 487 kts 293°
2026-04-22 11:07 12.14677 84.61846 35797 ft 487 kts 293°
2026-04-22 11:07 12.17693 84.55639 35798 ft 487 kts 293°
2026-04-22 11:08 12.20704 84.49436 35797 ft 487 kts 293°
2026-04-22 11:08 12.23712 84.43235 35798 ft 487 kts 293°
2026-04-22 11:09 12.26719 84.37034 35791 ft 487 kts 293°
2026-04-22 11:09 12.29218 84.31876 35794 ft 487 kts 293°
2026-04-22 11:10 12.32731 84.24619 35795 ft 487 kts 293°
2026-04-22 11:10 12.35226 84.19462 35799 ft 487 kts 293°
2026-04-22 11:11 12.38228 84.13253 35797 ft 487 kts 293°
2026-04-22 11:11 12.41226 84.07048 35795 ft 486 kts 293°
2026-04-22 11:12 12.44222 84.00843 35794 ft 486 kts 293°
2026-04-22 11:12 12.47216 83.94639 35794 ft 486 kts 293°
2026-04-22 11:13 12.50207 83.88435 35794 ft 486 kts 293°
2026-04-22 11:13 12.53198 83.82227 35797 ft 486 kts 293°
2026-04-22 11:14 12.56164 83.76067 35793 ft 486 kts 293°
2026-04-22 11:14 12.59148 83.69863 35790 ft 486 kts 293°
2026-04-22 11:15 12.62129 83.63662 35788 ft 485 kts 293°
2026-04-22 11:15 12.65108 83.57461 35792 ft 485 kts 293°
2026-04-22 11:16 12.68126 83.51269 35791 ft 486 kts 294°
2026-04-22 11:16 12.71218 83.45111 35793 ft 486 kts 294°
2026-04-22 11:17 12.74279 83.39021 35795 ft 487 kts 294°
2026-04-22 11:17 12.77366 83.32849 35791 ft 487 kts 294°
2026-04-22 11:18 12.80445 83.26673 35791 ft 487 kts 294°
2026-04-22 11:18 12.83523 83.20491 35792 ft 487 kts 294°
2026-04-22 11:19 12.86602 83.14304 35792 ft 487 kts 294°
2026-04-22 11:19 12.89682 83.08110 35788 ft 488 kts 294°
2026-04-22 11:20 12.92761 83.01916 35789 ft 488 kts 293°
2026-04-22 11:20 12.95825 82.95747 35788 ft 489 kts 293°
2026-04-22 11:21 12.98909 82.89533 35790 ft 489 kts 293°
2026-04-22 11:21 13.01993 82.83315 35786 ft 489 kts 293°
2026-04-22 11:22 13.05078 82.77090 35788 ft 490 kts 293°
2026-04-22 11:22 13.08162 82.70863 35786 ft 490 kts 293°
2026-04-22 11:23 13.11246 82.64631 35784 ft 490 kts 293°
2026-04-22 11:23 13.14330 82.58396 35786 ft 490 kts 293°
2026-04-22 11:24 13.17410 82.52162 35789 ft 490 kts 293°
2026-04-22 11:24 13.20492 82.45921 35786 ft 490 kts 293°
2026-04-22 11:25 13.23571 82.39681 35782 ft 490 kts 292°
2026-04-22 11:25 13.26650 82.33436 35782 ft 490 kts 292°
2026-04-22 11:26 13.29724 82.27197 35781 ft 490 kts 292°
2026-04-22 11:26 13.32795 82.20959 35782 ft 490 kts 292°
2026-04-22 11:27 13.35862 82.14723 35776 ft 489 kts 292°
2026-04-22 11:27 13.38927 82.08489 35777 ft 489 kts 292°
2026-04-22 11:28 13.41991 82.02250 35779 ft 489 kts 292°
2026-04-22 11:28 13.45030 81.96060 35778 ft 488 kts 292°
2026-04-22 11:29 13.48083 81.89834 35776 ft 488 kts 292°
2026-04-22 11:29 13.51135 81.83606 35775 ft 487 kts 292°
2026-04-22 11:30 13.54181 81.77387 35776 ft 487 kts 292°
2026-04-22 11:30 13.57222 81.71173 35775 ft 486 kts 292°
2026-04-22 11:31 13.60257 81.64965 35774 ft 486 kts 292°
2026-04-22 11:31 13.63288 81.58760 35775 ft 485 kts 291°
2026-04-22 11:32 13.66314 81.52561 35774 ft 485 kts 291°
2026-04-22 11:32 13.69337 81.46364 35773 ft 485 kts 291°
2026-04-22 11:33 13.72360 81.40172 35772 ft 484 kts 291°
2026-04-22 11:33 13.75385 81.33983 35770 ft 484 kts 291°
2026-04-22 11:34 13.78407 81.27795 35770 ft 484 kts 291°
2026-04-22 11:34 13.81403 81.21652 35766 ft 484 kts 291°
2026-04-22 11:35 13.84419 81.15462 35766 ft 484 kts 291°
2026-04-22 11:35 13.87433 81.09273 35768 ft 484 kts 291°
2026-04-22 11:36 13.90443 81.03086 35768 ft 483 kts 291°
2026-04-22 11:36 13.93452 80.96895 35763 ft 483 kts 291°
2026-04-22 11:37 13.96457 80.90709 35764 ft 483 kts 291°
2026-04-22 11:37 13.99462 80.84518 35758 ft 483 kts 291°
2026-04-22 11:38 14.02513 80.78346 35758 ft 484 kts 292°
2026-04-22 11:38 14.07196 80.69136 35765 ft 484 kts 292°
2026-04-22 11:39 14.10311 80.62992 35760 ft 484 kts 292°
2026-04-22 11:39 14.13394 80.56884 35756 ft 484 kts 292°
2026-04-22 11:40 14.16488 80.50742 35758 ft 484 kts 292°
2026-04-22 11:40 14.19593 80.44573 35761 ft 484 kts 292°
2026-04-22 11:41 14.22686 80.38423 35761 ft 483 kts 292°
2026-04-22 11:41 14.25779 80.32270 35760 ft 483 kts 291°
2026-04-22 11:42 14.28868 80.26120 35755 ft 483 kts 291°
2026-04-22 11:42 14.31953 80.19974 35755 ft 482 kts 291°
2026-04-22 11:43 14.35033 80.13833 35751 ft 482 kts 291°
2026-04-22 11:43 14.38108 80.07695 35750 ft 481 kts 291°
2026-04-22 11:44 14.41179 80.01562 35749 ft 481 kts 291°
2026-04-22 11:44 14.44245 79.95435 35746 ft 480 kts 291°
2026-04-22 11:45 14.47310 79.89303 35743 ft 480 kts 291°
2026-04-22 11:45 14.50367 79.83183 35744 ft 480 kts 291°
2026-04-22 11:46 14.53421 79.77065 35740 ft 479 kts 291°
2026-04-22 11:46 14.56470 79.70952 35740 ft 479 kts 291°
2026-04-22 11:47 14.59515 79.64840 35737 ft 479 kts 291°
2026-04-22 11:47 14.62537 79.58772 35731 ft 478 kts 291°
2026-04-22 11:48 14.65574 79.52667 35733 ft 478 kts 291°
2026-04-22 11:48 14.68609 79.46562 35728 ft 477 kts 291°
2026-04-22 11:49 14.71639 79.40462 35729 ft 477 kts 291°
2026-04-22 11:49 14.74669 79.34357 35736 ft 477 kts 291°
2026-04-22 11:50 14.77696 79.28254 35735 ft 477 kts 291°
2026-04-22 11:50 14.80719 79.22154 35735 ft 477 kts 291°
2026-04-22 11:51 14.83739 79.16053 35732 ft 477 kts 291°
2026-04-22 11:51 14.86762 79.09943 35734 ft 477 kts 290°
2026-04-22 11:52 14.89780 79.03840 35740 ft 477 kts 290°
2026-04-22 11:52 14.92794 78.97736 35745 ft 476 kts 290°
2026-04-22 11:53 14.95806 78.91634 35758 ft 476 kts 290°
2026-04-22 11:53 14.98814 78.85533 35756 ft 476 kts 290°
2026-04-22 11:54 15.01823 78.79426 35759 ft 476 kts 290°
2026-04-22 11:54 15.04826 78.73327 35758 ft 476 kts 290°
2026-04-22 11:55 15.07807 78.67266 35769 ft 476 kts 290°
2026-04-22 11:55 15.10805 78.61165 35766 ft 476 kts 290°
2026-04-22 11:56 15.13802 78.55063 35766 ft 476 kts 290°
2026-04-22 11:56 15.16797 78.48959 35773 ft 476 kts 290°
2026-04-22 11:57 15.19794 78.42847 35790 ft 476 kts 290°
2026-04-22 11:57 15.22788 78.36733 35797 ft 476 kts 290°
2026-04-22 11:58 15.25779 78.30623 35791 ft 476 kts 290°
2026-04-22 11:58 15.28770 78.24506 35803 ft 476 kts 290°
2026-04-22 11:59 15.31760 78.18385 35812 ft 476 kts 290°
2026-04-22 11:59 15.34748 78.12264 35817 ft 476 kts 290°
2026-04-22 12:00 15.37725 78.06138 35819 ft 476 kts 289°
2026-04-22 12:00 15.40672 78.00001 35822 ft 475 kts 289°
2026-04-22 12:01 15.43612 77.93867 35826 ft 475 kts 289°
2026-04-22 12:01 15.46553 77.87733 35828 ft 475 kts 289°
2026-04-22 12:02 15.49494 77.81600 35823 ft 475 kts 289°
2026-04-22 12:02 15.51938 77.76500 35827 ft 475 kts 289°
2026-04-22 12:03 15.54874 77.70367 35826 ft 475 kts 289°
2026-04-22 12:03 15.57811 77.64227 35822 ft 475 kts 289°
2026-04-22 12:04 15.60742 77.58094 35825 ft 475 kts 289°
2026-04-22 12:04 15.63673 77.51954 35821 ft 474 kts 289°
2026-04-22 12:05 15.66597 77.45824 35824 ft 474 kts 289°
2026-04-22 12:05 15.69522 77.39685 35820 ft 474 kts 289°
2026-04-22 12:06 15.72427 77.33589 35820 ft 475 kts 289°
2026-04-22 12:06 15.75367 77.27450 35821 ft 475 kts 289°
2026-04-22 12:07 15.78313 77.21306 35814 ft 476 kts 289°
2026-04-22 12:07 15.81258 77.15155 35816 ft 476 kts 289°
2026-04-22 12:08 15.84198 77.09003 35814 ft 475 kts 288°
2026-04-22 12:08 15.87134 77.02854 35814 ft 475 kts 288°
2026-04-22 12:09 15.90070 76.96701 35817 ft 475 kts 288°
2026-04-22 12:09 15.92999 76.90555 35812 ft 474 kts 288°
2026-04-22 12:10 15.95922 76.84417 35815 ft 474 kts 288°
2026-04-22 12:10 15.98842 76.78278 35814 ft 474 kts 288°
2026-04-22 12:11 16.01759 76.72142 35825 ft 473 kts 288°
2026-04-22 12:11 16.04674 76.66004 35817 ft 473 kts 288°
2026-04-22 12:12 16.07584 76.59873 35834 ft 473 kts 288°
2026-04-22 12:12 16.10490 76.53743 35820 ft 472 kts 288°
2026-04-22 12:13 16.13394 76.47612 35829 ft 472 kts 288°
2026-04-22 12:13 16.16293 76.41485 35825 ft 472 kts 288°
2026-04-22 12:14 16.19189 76.35359 35834 ft 472 kts 288°
2026-04-22 12:14 16.22084 76.29229 35831 ft 472 kts 288°
2026-04-22 12:15 16.24968 76.23128 36279 ft 465 kts 287°
2026-04-22 12:15 16.26335 76.20129 36428 ft 466 kts 286°
2026-04-22 12:15 16.27736 76.17014 36342 ft 470 kts 287°
2026-04-22 12:16 16.29130 76.13922 36050 ft 472 kts 287°
2026-04-22 12:16 16.30513 76.10877 35731 ft 473 kts 287°
2026-04-22 12:16 16.31933 76.07780 35423 ft 475 kts 287°
2026-04-22 12:16 16.33369 76.04683 35281 ft 475 kts 288°
2026-04-22 12:17 16.36286 75.98531 35549 ft 473 kts 288°
2026-04-22 12:17 16.37773 75.95469 35737 ft 473 kts 288°
2026-04-22 12:17 16.39282 75.92422 35952 ft 473 kts 289°
2026-04-22 12:18 16.40815 75.89393 36120 ft 473 kts 289°
2026-04-22 12:18 16.42377 75.86371 36136 ft 475 kts 289°
2026-04-22 12:18 16.43972 75.83354 36035 ft 477 kts 290°
2026-04-22 12:18 16.45601 75.80341 35894 ft 478 kts 291°
2026-04-22 12:19 16.47259 75.77340 35756 ft 479 kts 291°
2026-04-22 12:19 16.48840 75.74317 35713 ft 468 kts 285°
2026-04-22 12:19 16.51133 75.68030 35834 ft 465 kts 282°
2026-04-22 12:20 16.53649 75.61760 35835 ft 471 kts 286°
2026-04-22 12:20 16.56496 75.55598 35830 ft 473 kts 288°
2026-04-22 12:21 16.59369 75.49482 35827 ft 473 kts 287°
2026-04-22 12:21 16.62272 75.43328 35828 ft 474 kts 289°
2026-04-22 12:22 16.65355 75.37234 35837 ft 476 kts 289°
2026-04-22 12:22 16.68468 75.31142 35834 ft 476 kts 289°
2026-04-22 12:23 16.71560 75.25034 35831 ft 476 kts 289°
2026-04-22 12:23 16.74635 75.18915 35835 ft 476 kts 289°
2026-04-22 12:24 16.77706 75.12791 35828 ft 477 kts 289°
2026-04-22 12:24 16.80778 75.06660 35826 ft 477 kts 289°
2026-04-22 12:25 16.83850 75.00528 35833 ft 477 kts 289°
2026-04-22 12:25 16.86921 74.94391 35825 ft 477 kts 289°
2026-04-22 12:26 16.89989 74.88256 35823 ft 477 kts 288°
2026-04-22 12:26 16.93055 74.82116 35825 ft 477 kts 289°
2026-04-22 12:27 16.96122 74.75970 35821 ft 477 kts 288°
2026-04-22 12:27 16.99185 74.69827 35824 ft 477 kts 288°
2026-04-22 12:28 17.02249 74.63675 35827 ft 477 kts 288°
2026-04-22 12:28 17.05310 74.57524 35831 ft 477 kts 288°
2026-04-22 12:29 17.08370 74.51370 35828 ft 477 kts 288°
2026-04-22 12:29 17.11429 74.45212 35827 ft 477 kts 288°
2026-04-22 12:30 17.16013 74.35970 35832 ft 477 kts 288°
2026-04-22 12:31 17.19046 74.29849 35836 ft 477 kts 288°
2026-04-22 12:31 17.22102 74.23679 35841 ft 478 kts 288°
2026-04-22 12:32 17.25164 74.17513 35850 ft 478 kts 288°
2026-04-22 12:32 17.29754 74.08262 35837 ft 478 kts 288°
2026-04-22 12:33 17.32810 74.02090 35856 ft 477 kts 288°
2026-04-22 12:33 17.35865 73.95915 35850 ft 478 kts 288°
2026-04-22 12:34 17.38916 73.89742 35847 ft 477 kts 288°
2026-04-22 12:34 17.41965 73.83569 35855 ft 477 kts 288°
2026-04-22 12:35 17.45008 73.77400 35848 ft 477 kts 288°
2026-04-22 12:35 17.48047 73.71236 35847 ft 475 kts 288°
2026-04-22 12:36 17.51078 73.65075 35838 ft 477 kts 288°
2026-04-22 12:36 17.54108 73.58914 35846 ft 476 kts 289°
2026-04-22 12:37 17.57145 73.52734 35833 ft 477 kts 289°
2026-04-22 12:37 17.60183 73.46545 35829 ft 478 kts 289°
2026-04-22 12:38 17.63202 73.40392 35830 ft 478 kts 289°
2026-04-22 12:38 17.66235 73.34201 35815 ft 477 kts 289°
2026-04-22 12:39 17.70776 73.24919 35809 ft 477 kts 289°
2026-04-22 12:40 17.73798 73.18736 35811 ft 476 kts 289°
2026-04-22 12:40 17.76813 73.12552 35808 ft 476 kts 289°
2026-04-22 12:41 17.79823 73.06369 35798 ft 475 kts 289°
2026-04-22 12:41 17.82827 73.00191 35805 ft 475 kts 289°
2026-04-22 12:42 17.85831 72.94008 35802 ft 475 kts 290°
2026-04-22 12:42 17.88833 72.87822 35802 ft 476 kts 290°
2026-04-22 12:43 17.91835 72.81632 35802 ft 476 kts 290°
2026-04-22 12:43 17.94834 72.75441 35801 ft 476 kts 290°
2026-04-22 12:44 17.97832 72.69247 35805 ft 476 kts 290°
2026-04-22 12:44 18.00807 72.63093 35805 ft 476 kts 290°
2026-04-22 12:45 18.03800 72.56895 35805 ft 476 kts 290°
2026-04-22 12:45 18.06792 72.50694 35817 ft 477 kts 291°
2026-04-22 12:45 18.08296 72.47573 35957 ft 480 kts 291°
2026-04-22 12:46 18.09800 72.44450 36301 ft 478 kts 291°
2026-04-22 12:46 18.11301 72.41338 36711 ft 476 kts 290°
2026-04-22 12:46 18.12796 72.38236 37091 ft 475 kts 290°
2026-04-22 12:46 18.14286 72.35141 37437 ft 474 kts 290°
2026-04-22 12:47 18.15775 72.32047 37716 ft 474 kts 290°
2026-04-22 12:47 18.18753 72.25845 37802 ft 475 kts 290°
2026-04-22 12:48 18.21729 72.19645 37800 ft 474 kts 290°
2026-04-22 12:48 18.24698 72.13454 37806 ft 474 kts 291°
2026-04-22 12:49 18.27665 72.07261 37807 ft 474 kts 291°
2026-04-22 12:49 18.30629 72.01068 37814 ft 474 kts 291°
2026-04-22 12:50 18.33592 71.94872 37812 ft 474 kts 291°
2026-04-22 12:50 18.36554 71.88669 37814 ft 474 kts 291°
2026-04-22 12:51 18.39497 71.82502 37817 ft 475 kts 292°
2026-04-22 12:51 18.42456 71.76294 37822 ft 475 kts 292°
2026-04-22 12:52 18.45419 71.70072 37804 ft 475 kts 292°
2026-04-22 12:52 18.47900 71.64858 37809 ft 475 kts 292°
2026-04-22 12:53 18.51341 71.57618 37817 ft 476 kts 293°
2026-04-22 12:53 18.54300 71.51384 37817 ft 476 kts 293°
2026-04-22 12:54 18.56780 71.46156 37808 ft 476 kts 293°
2026-04-22 12:54 18.59737 71.39914 37822 ft 476 kts 293°
2026-04-22 12:55 18.62694 71.33667 37829 ft 476 kts 294°
2026-04-22 12:55 18.65650 71.27416 37820 ft 476 kts 294°
2026-04-22 12:56 18.68605 71.21160 37823 ft 477 kts 294°
2026-04-22 12:56 18.71558 71.14900 37824 ft 477 kts 294°
2026-04-22 12:57 18.74511 71.08636 37826 ft 477 kts 294°
2026-04-22 12:57 18.77460 71.02371 37837 ft 477 kts 294°
2026-04-22 12:58 18.80409 70.96103 37836 ft 477 kts 295°
2026-04-22 12:58 18.83352 70.89840 37826 ft 476 kts 295°
2026-04-22 12:59 18.86271 70.83620 37823 ft 476 kts 295°
2026-04-22 12:59 18.89203 70.77366 37823 ft 475 kts 295°
2026-04-22 13:00 18.92129 70.71118 37821 ft 474 kts 295°
2026-04-22 13:00 18.95053 70.64868 37829 ft 474 kts 295°
2026-04-22 13:01 18.97974 70.58619 37827 ft 474 kts 295°
2026-04-22 13:01 19.00891 70.52371 37842 ft 474 kts 296°
2026-04-22 13:02 19.03805 70.46123 37839 ft 474 kts 296°
2026-04-22 13:02 19.06713 70.39881 37834 ft 473 kts 296°
2026-04-22 13:03 19.09617 70.33640 37831 ft 473 kts 296°
2026-04-22 13:03 19.12517 70.27400 37853 ft 472 kts 296°
2026-04-22 13:04 19.15411 70.21169 37838 ft 472 kts 296°
2026-04-22 13:04 19.18297 70.14946 37833 ft 471 kts 296°
2026-04-22 13:05 19.21176 70.08733 37855 ft 471 kts 296°
2026-04-22 13:05 19.24056 70.02511 37845 ft 471 kts 296°
2026-04-22 13:06 19.26918 69.96322 37839 ft 471 kts 297°
2026-04-22 13:06 19.29797 69.90088 37836 ft 471 kts 297°
2026-04-22 13:07 19.32673 69.83854 37845 ft 471 kts 297°
2026-04-22 13:07 19.35549 69.77612 37842 ft 471 kts 297°
2026-04-22 13:08 19.38422 69.71372 37846 ft 471 kts 297°
2026-04-22 13:08 19.41291 69.65133 37852 ft 471 kts 297°
2026-04-22 13:09 19.44156 69.58895 37844 ft 471 kts 297°
2026-04-22 13:09 19.47018 69.52656 37844 ft 471 kts 297°
2026-04-22 13:10 19.49878 69.46417 37846 ft 470 kts 297°
2026-04-22 13:10 19.52734 69.40178 37852 ft 470 kts 297°
2026-04-22 13:11 19.55589 69.33945 37846 ft 470 kts 297°
2026-04-22 13:11 19.58541 69.27761 37841 ft 470 kts 298°
2026-04-22 13:12 19.61531 69.21606 37844 ft 469 kts 298°
2026-04-22 13:12 19.64511 69.15444 37844 ft 469 kts 298°
2026-04-22 13:13 19.67477 69.09277 37844 ft 469 kts 298°
2026-04-22 13:13 19.70433 69.03110 37853 ft 469 kts 298°
2026-04-22 13:14 19.73385 68.96944 37848 ft 468 kts 298°
2026-04-22 13:14 19.76334 68.90782 37848 ft 468 kts 298°
2026-04-22 13:15 19.79278 68.84622 37849 ft 467 kts 298°
2026-04-22 13:15 19.82217 68.78466 37844 ft 467 kts 298°
2026-04-22 13:16 19.85135 68.72349 37845 ft 467 kts 298°
2026-04-22 13:16 19.88067 68.66195 37854 ft 467 kts 298°
2026-04-22 13:17 19.90994 68.60045 37846 ft 466 kts 298°
2026-04-22 13:17 19.93918 68.53893 37847 ft 466 kts 298°
2026-04-22 13:18 19.96837 68.47747 37862 ft 466 kts 297°
2026-04-22 13:18 19.99752 68.41601 37851 ft 466 kts 297°
2026-04-22 13:19 20.02666 68.35451 37846 ft 465 kts 297°
2026-04-22 13:19 20.05574 68.29307 37864 ft 465 kts 297°
2026-04-22 13:20 20.08478 68.23166 37845 ft 465 kts 297°
2026-04-22 13:20 20.11378 68.17024 37849 ft 465 kts 297°
2026-04-22 13:21 20.14278 68.10878 37850 ft 464 kts 297°
2026-04-22 13:21 20.17173 68.04734 37863 ft 464 kts 297°
2026-04-22 13:22 20.20063 67.98594 37852 ft 464 kts 297°
2026-04-22 13:22 20.22954 67.92445 37846 ft 464 kts 297°
2026-04-22 13:23 20.25839 67.86303 37850 ft 464 kts 297°
2026-04-22 13:23 20.28701 67.80202 37862 ft 464 kts 297°
2026-04-22 13:24 20.31581 67.74055 37862 ft 463 kts 297°
2026-04-22 13:24 20.34459 67.67908 37860 ft 463 kts 297°
2026-04-22 13:25 20.37333 67.61761 37843 ft 464 kts 297°
2026-04-22 13:25 20.40209 67.55604 37859 ft 464 kts 297°
2026-04-22 13:26 20.43082 67.49445 37862 ft 464 kts 297°
2026-04-22 13:26 20.45952 67.43286 37848 ft 464 kts 296°
2026-04-22 13:27 20.48821 67.37122 37858 ft 464 kts 296°
2026-04-22 13:27 20.51688 67.30956 37859 ft 464 kts 296°
2026-04-22 13:28 20.54550 67.24792 37843 ft 464 kts 296°
2026-04-22 13:28 20.57413 67.18622 37855 ft 464 kts 296°
2026-04-22 13:29 20.60271 67.12454 37854 ft 463 kts 296°
2026-04-22 13:29 20.63125 67.06286 37856 ft 463 kts 296°
2026-04-22 13:30 20.65977 67.00117 37854 ft 463 kts 296°
2026-04-22 13:30 20.68828 66.93943 37854 ft 464 kts 296°
2026-04-22 13:31 20.71678 66.87765 37856 ft 464 kts 296°
2026-04-22 13:31 20.74524 66.81587 37854 ft 464 kts 296°
2026-04-22 13:32 20.77371 66.75401 37854 ft 464 kts 296°
2026-04-22 13:32 20.80211 66.69221 37855 ft 464 kts 296°
2026-04-22 13:33 20.83052 66.63032 37855 ft 464 kts 296°
2026-04-22 13:33 20.85894 66.56835 37852 ft 464 kts 296°
2026-04-22 13:34 20.88733 66.50638 37853 ft 464 kts 296°
2026-04-22 13:34 20.91569 66.44439 37854 ft 464 kts 296°
2026-04-22 13:35 20.94404 66.38235 37856 ft 464 kts 296°
2026-04-22 13:35 20.97238 66.32025 37858 ft 464 kts 296°
2026-04-22 13:36 21.00051 66.25855 37856 ft 465 kts 296°
2026-04-22 13:36 21.02880 66.19641 37856 ft 465 kts 296°
2026-04-22 13:37 21.05708 66.13423 37855 ft 465 kts 296°
2026-04-22 13:37 21.08536 66.07198 37859 ft 465 kts 296°
2026-04-22 13:38 21.11358 66.00979 37859 ft 464 kts 296°
2026-04-22 13:38 21.15690 65.91692 37859 ft 465 kts 297°
2026-04-22 13:39 21.18618 65.85522 37857 ft 465 kts 296°
2026-04-22 13:39 21.21538 65.79341 37860 ft 465 kts 296°
2026-04-22 13:40 21.23954 65.74206 37856 ft 465 kts 296°
2026-04-22 13:40 21.27350 65.66972 37858 ft 464 kts 296°
2026-04-22 13:41 21.29760 65.61831 37856 ft 464 kts 296°
2026-04-22 13:41 21.32658 65.55644 37857 ft 464 kts 296°
2026-04-22 13:42 21.35556 65.49451 37857 ft 464 kts 296°
2026-04-22 13:42 21.38452 65.43254 37858 ft 464 kts 296°
2026-04-22 13:43 21.41344 65.37058 37855 ft 464 kts 296°
2026-04-22 13:43 21.44234 65.30860 37857 ft 464 kts 296°
2026-04-22 13:44 21.47123 65.24657 37858 ft 464 kts 296°
2026-04-22 13:44 21.50009 65.18451 37858 ft 465 kts 296°
2026-04-22 13:45 21.52895 65.12240 37857 ft 465 kts 296°
2026-04-22 13:45 21.55775 65.06032 37856 ft 465 kts 296°
2026-04-22 13:46 21.58657 64.99815 37858 ft 465 kts 296°
2026-04-22 13:46 21.61534 64.93599 37853 ft 465 kts 296°
2026-04-22 13:47 21.64411 64.87378 37858 ft 465 kts 296°
2026-04-22 13:47 21.67284 64.81156 37855 ft 465 kts 296°
2026-04-22 13:48 21.70154 64.74934 37854 ft 464 kts 296°
2026-04-22 13:48 21.73021 64.68712 37854 ft 464 kts 296°
2026-04-22 13:49 21.75883 64.62490 37854 ft 464 kts 296°
2026-04-22 13:49 21.78740 64.56274 37855 ft 463 kts 296°
2026-04-22 13:50 21.81592 64.50061 37854 ft 462 kts 296°
2026-04-22 13:50 21.84434 64.43862 37856 ft 462 kts 296°
2026-04-22 13:51 21.87269 64.37671 37855 ft 461 kts 296°
2026-04-22 13:51 21.90078 64.31529 37856 ft 460 kts 296°
2026-04-22 13:52 21.92898 64.25356 37854 ft 459 kts 296°
2026-04-22 13:52 21.95711 64.19190 37855 ft 458 kts 296°
2026-04-22 13:53 21.98519 64.13029 37844 ft 458 kts 296°
2026-04-22 13:53 22.01318 64.06879 37859 ft 457 kts 296°
2026-04-22 13:54 22.04110 64.00736 37859 ft 456 kts 296°
2026-04-22 13:54 22.06897 63.94598 37853 ft 455 kts 296°
2026-04-22 13:55 22.09676 63.88471 37854 ft 455 kts 296°
2026-04-22 13:55 22.12451 63.82344 37860 ft 454 kts 296°
2026-04-22 13:56 22.15219 63.76224 37853 ft 454 kts 296°
2026-04-22 13:56 22.17986 63.70101 37853 ft 454 kts 296°
2026-04-22 13:57 22.20746 63.63984 37856 ft 453 kts 296°
2026-04-22 13:57 22.23503 63.57868 37834 ft 453 kts 296°
2026-04-22 13:58 22.26253 63.51759 37849 ft 453 kts 296°
2026-04-22 13:58 22.29003 63.45643 37845 ft 453 kts 296°
2026-04-22 13:59 22.31749 63.39528 37845 ft 452 kts 296°
2026-04-22 13:59 22.34491 63.33413 37844 ft 452 kts 296°
2026-04-22 14:00 22.37230 63.27298 37847 ft 452 kts 296°
2026-04-22 14:00 22.39966 63.21183 37844 ft 452 kts 296°
2026-04-22 14:01 22.42700 63.15064 37844 ft 452 kts 296°
2026-04-22 14:01 22.45387 63.08922 37840 ft 452 kts 295°
2026-04-22 14:02 22.47834 63.02656 37840 ft 452 kts 293°
2026-04-22 14:02 22.50217 62.96401 37839 ft 452 kts 293°
2026-04-22 14:03 22.52636 62.90124 37840 ft 452 kts 294°
2026-04-22 14:03 22.55071 62.83857 37837 ft 452 kts 294°
2026-04-22 14:04 22.57506 62.77599 37836 ft 451 kts 294°
2026-04-22 14:04 22.59936 62.71350 37835 ft 450 kts 294°
2026-04-22 14:05 22.62361 62.65101 37833 ft 450 kts 294°
2026-04-22 14:06 22.65985 62.55743 37831 ft 449 kts 294°
2026-04-22 14:06 22.68396 62.49508 37834 ft 449 kts 294°
2026-04-22 14:07 22.70803 62.43272 37835 ft 448 kts 294°
2026-04-22 14:07 22.73204 62.37045 37820 ft 448 kts 294°
2026-04-22 14:08 22.75601 62.30821 37832 ft 447 kts 294°
2026-04-22 14:08 22.77991 62.24607 37839 ft 446 kts 294°
2026-04-22 14:09 22.80375 62.18397 37836 ft 446 kts 294°
2026-04-22 14:09 22.82738 62.12235 37817 ft 445 kts 294°
2026-04-22 14:10 22.85112 62.06036 37823 ft 445 kts 294°
2026-04-22 14:10 22.87481 61.99843 37823 ft 444 kts 294°
2026-04-22 14:11 22.89843 61.93659 37823 ft 444 kts 294°
2026-04-22 14:11 22.92201 61.87476 37825 ft 443 kts 294°
2026-04-22 14:12 22.94554 61.81301 37808 ft 443 kts 294°
2026-04-22 14:12 22.96902 61.75128 37831 ft 442 kts 294°
2026-04-22 14:13 22.99245 61.68959 37818 ft 442 kts 294°
2026-04-22 14:13 23.01583 61.62798 37817 ft 441 kts 294°
2026-04-22 14:14 23.03913 61.56647 37809 ft 441 kts 294°
2026-04-22 14:14 23.06242 61.50491 37815 ft 440 kts 294°
2026-04-22 14:15 23.08565 61.44341 37814 ft 440 kts 294°
2026-04-22 14:15 23.10887 61.38188 37813 ft 440 kts 293°
2026-04-22 14:16 23.13204 61.32037 37812 ft 440 kts 293°
2026-04-22 14:16 23.15519 61.25884 37805 ft 440 kts 293°
2026-04-22 14:17 23.17830 61.19734 37809 ft 439 kts 293°
2026-04-22 14:17 23.20137 61.13584 37810 ft 439 kts 293°
2026-04-22 14:18 23.22440 61.07439 37806 ft 439 kts 293°
2026-04-22 14:18 23.24740 61.01290 37805 ft 439 kts 293°
2026-04-22 14:19 23.27022 60.95183 37804 ft 439 kts 293°
2026-04-22 14:19 23.29316 60.89037 37813 ft 439 kts 293°
2026-04-22 14:20 23.32752 60.79811 37808 ft 439 kts 293°
2026-04-22 14:20 23.35040 60.73655 37802 ft 439 kts 293°
2026-04-22 14:21 23.38468 60.64421 37799 ft 439 kts 293°
2026-04-22 14:22 23.41865 60.55168 37799 ft 439 kts 292°
2026-04-22 14:23 23.45247 60.45907 37795 ft 439 kts 292°
2026-04-22 14:23 23.47498 60.39739 37801 ft 438 kts 292°
2026-04-22 14:24 23.49745 60.33572 37802 ft 438 kts 292°
2026-04-22 14:24 23.51991 60.27402 37801 ft 438 kts 292°
2026-04-22 14:25 23.54232 60.21238 37796 ft 437 kts 292°
2026-04-22 14:25 23.56467 60.15078 37794 ft 437 kts 292°
2026-04-22 14:26 23.58699 60.08921 37794 ft 436 kts 292°
2026-04-22 14:26 23.60925 60.02769 37789 ft 436 kts 292°
2026-04-22 14:27 23.63145 59.96626 37781 ft 435 kts 292°
2026-04-22 14:27 23.65361 59.90485 37790 ft 435 kts 292°
2026-04-22 14:28 23.67571 59.84351 37787 ft 434 kts 292°
2026-04-22 14:28 23.69406 59.79255 37789 ft 434 kts 292°
2026-04-22 14:29 23.71607 59.73130 37792 ft 433 kts 292°
2026-04-22 14:29 23.73804 59.67007 37786 ft 433 kts 292°
2026-04-22 14:30 23.75997 59.60889 37784 ft 433 kts 292°
2026-04-22 14:30 23.78186 59.54770 37785 ft 432 kts 292°
2026-04-22 14:31 23.80371 59.48656 37784 ft 432 kts 292°
2026-04-22 14:31 23.82554 59.42538 37788 ft 432 kts 292°
2026-04-22 14:32 23.84733 59.36424 37783 ft 432 kts 292°
2026-04-22 14:32 23.86909 59.30306 37778 ft 432 kts 291°
2026-04-22 14:33 23.89082 59.24191 37778 ft 432 kts 291°
2026-04-22 14:33 23.91252 59.18074 37784 ft 432 kts 291°
2026-04-22 14:34 23.93401 59.11957 37780 ft 431 kts 290°
2026-04-22 14:34 23.95400 59.05773 37784 ft 431 kts 290°
2026-04-22 14:35 23.97346 58.99624 37779 ft 431 kts 290°
2026-04-22 14:35 23.99321 58.93429 37779 ft 431 kts 290°
2026-04-22 14:36 24.01302 58.87245 37771 ft 430 kts 290°
2026-04-22 14:36 24.03259 58.81129 37491 ft 421 kts 290°
2026-04-22 14:36 24.04223 58.78115 37131 ft 419 kts 290°
2026-04-22 14:37 24.05185 58.75102 36692 ft 420 kts 289°
2026-04-22 14:37 24.06148 58.72084 36295 ft 420 kts 289°
2026-04-22 14:37 24.07108 58.69074 35922 ft 419 kts 289°
2026-04-22 14:37 24.08065 58.66071 35603 ft 417 kts 289°
2026-04-22 14:38 24.09018 58.63078 35279 ft 416 kts 289°
2026-04-22 14:38 24.09967 58.60097 34956 ft 414 kts 289°
2026-04-22 14:38 24.10912 58.57122 34620 ft 413 kts 289°
2026-04-22 14:38 24.11852 58.54159 34289 ft 412 kts 289°
2026-04-22 14:39 24.12791 58.51196 33947 ft 411 kts 289°
2026-04-22 14:39 24.13726 58.48239 33620 ft 410 kts 289°
2026-04-22 14:39 24.14657 58.45293 33291 ft 408 kts 289°
2026-04-22 14:40 24.16497 58.39465 32756 ft 402 kts 289°
2026-04-22 14:40 24.17407 58.36580 32459 ft 400 kts 289°
2026-04-22 14:40 24.18312 58.33710 32161 ft 398 kts 289°
2026-04-22 14:40 24.19210 58.30858 31870 ft 395 kts 289°
2026-04-22 14:41 24.20104 58.28016 31585 ft 393 kts 289°
2026-04-22 14:41 24.20993 58.25191 31302 ft 391 kts 289°
2026-04-22 14:41 24.21877 58.22378 31027 ft 389 kts 288°
2026-04-22 14:41 24.22755 58.19581 30751 ft 388 kts 288°
2026-04-22 14:42 24.23629 58.16797 30473 ft 386 kts 288°
2026-04-22 14:42 24.24500 58.14020 30193 ft 384 kts 288°
2026-04-22 14:42 24.25366 58.11256 29926 ft 383 kts 288°
2026-04-22 14:42 24.26228 58.08504 29621 ft 381 kts 288°
2026-04-22 14:43 24.27085 58.05764 29305 ft 380 kts 288°
2026-04-22 14:43 24.27940 58.03031 29000 ft 378 kts 288°
2026-04-22 14:43 24.28798 58.00289 28821 ft 385 kts 288°
2026-04-22 14:43 24.29676 57.97499 28844 ft 390 kts 288°
2026-04-22 14:44 24.31472 57.91795 28866 ft 401 kts 288°
2026-04-22 14:44 24.33279 57.85994 28533 ft 398 kts 288°
2026-04-22 14:45 24.34162 57.83130 27982 ft 395 kts 288°
2026-04-22 14:45 24.35038 57.80285 27478 ft 392 kts 288°
2026-04-22 14:45 24.35908 57.77463 27046 ft 388 kts 288°
2026-04-22 14:45 24.36766 57.74687 26676 ft 382 kts 288°
2026-04-22 14:46 24.37614 57.71947 26300 ft 377 kts 288°
2026-04-22 14:46 24.38452 57.69241 25925 ft 372 kts 288°
2026-04-22 14:46 24.39279 57.66570 25571 ft 368 kts 288°
2026-04-22 14:46 24.40085 57.63964 25221 ft 364 kts 288°
2026-04-22 14:47 24.40894 57.61351 24948 ft 359 kts 287°
2026-04-22 14:47 24.41693 57.58768 24740 ft 357 kts 287°
2026-04-22 14:47 24.42493 57.56181 24423 ft 358 kts 287°
2026-04-22 14:47 24.43290 57.53597 24151 ft 356 kts 287°
2026-04-22 14:48 24.44084 57.51025 23934 ft 355 kts 287°
2026-04-22 14:48 24.44875 57.48459 23710 ft 355 kts 287°
2026-04-22 14:48 24.45666 57.45896 23495 ft 354 kts 287°
2026-04-22 14:48 24.46455 57.43337 23264 ft 354 kts 287°
2026-04-22 14:49 24.47243 57.40783 22992 ft 353 kts 287°
2026-04-22 14:49 24.48029 57.38231 22855 ft 352 kts 287°
2026-04-22 14:49 24.48810 57.35696 22816 ft 351 kts 287°
2026-04-22 14:49 24.49591 57.33159 22785 ft 350 kts 287°
2026-04-22 14:50 24.50370 57.30625 22793 ft 351 kts 287°
2026-04-22 14:50 24.51151 57.28083 22792 ft 351 kts 287°
2026-04-22 14:50 24.51932 57.25541 22791 ft 351 kts 287°
2026-04-22 14:50 24.52713 57.22995 22788 ft 352 kts 287°
2026-04-22 14:51 24.53493 57.20452 22792 ft 352 kts 287°
2026-04-22 14:51 24.54272 57.17911 22785 ft 351 kts 287°
2026-04-22 14:51 24.55052 57.15366 22796 ft 351 kts 287°
2026-04-22 14:51 24.55830 57.12825 22800 ft 351 kts 287°
2026-04-22 14:52 24.56609 57.10279 22801 ft 351 kts 287°
2026-04-22 14:52 24.57387 57.07736 22798 ft 351 kts 287°
2026-04-22 14:52 24.58164 57.05192 22798 ft 351 kts 287°
2026-04-22 14:52 24.58940 57.02651 22800 ft 351 kts 287°
2026-04-22 14:53 24.59716 57.00108 22797 ft 351 kts 287°
2026-04-22 14:53 24.60492 56.97565 22797 ft 351 kts 287°
2026-04-22 14:53 24.61267 56.95023 22800 ft 351 kts 287°
2026-04-22 14:53 24.62042 56.92479 22788 ft 351 kts 287°
2026-04-22 14:54 24.62814 56.89942 22608 ft 353 kts 287°
2026-04-22 14:54 24.63585 56.87405 22095 ft 356 kts 287°
2026-04-22 14:54 24.64453 56.84854 21579 ft 356 kts 292°
2026-04-22 14:54 24.65562 56.82419 21092 ft 357 kts 298°
2026-04-22 14:55 24.66836 56.80081 20605 ft 356 kts 299°
2026-04-22 14:55 24.68123 56.77757 20132 ft 356 kts 300°
2026-04-22 14:55 24.69413 56.75434 19682 ft 356 kts 300°
2026-04-22 14:55 24.70701 56.73111 19204 ft 355 kts 300°
2026-04-22 14:56 24.71983 56.70792 18753 ft 355 kts 300°
2026-04-22 14:56 24.73262 56.68471 18288 ft 355 kts 300°
2026-04-22 14:56 24.74541 56.66147 17823 ft 355 kts 300°
2026-04-22 14:56 24.75817 56.63826 17313 ft 354 kts 300°
2026-04-22 14:57 24.77084 56.61519 16796 ft 347 kts 300°
2026-04-22 14:57 24.78313 56.59282 16280 ft 337 kts 299°
2026-04-22 14:57 24.79519 56.57082 15803 ft 337 kts 299°
2026-04-22 14:57 24.80720 56.54892 15319 ft 331 kts 299°
2026-04-22 14:58 24.81902 56.52734 14830 ft 328 kts 299°
2026-04-22 14:58 24.83076 56.50591 14383 ft 325 kts 299°
2026-04-22 14:58 24.84238 56.48469 13916 ft 323 kts 299°
2026-04-22 14:58 24.85392 56.46360 13444 ft 320 kts 299°
2026-04-22 14:59 24.86540 56.44264 12936 ft 318 kts 299°
2026-04-22 14:59 24.87643 56.42169 12421 ft 315 kts 292°
2026-04-22 14:59 24.88299 56.39900 11944 ft 309 kts 280°
2026-04-22 14:59 24.88526 56.37573 11452 ft 305 kts 268°
2026-04-22 15:00 24.88410 56.35247 10992 ft 303 kts 264°
2026-04-22 15:00 24.88243 56.32944 10525 ft 301 kts 264°
2026-04-22 15:00 24.88096 56.30658 10226 ft 296 kts 264°
2026-04-22 15:00 24.87965 56.28396 10163 ft 296 kts 264°
2026-04-22 15:01 24.87991 56.26125 10099 ft 300 kts 277°
2026-04-22 15:01 24.88530 56.23905 10058 ft 301 kts 290°
2026-04-22 15:01 24.89465 56.21834 10063 ft 304 kts 296°
2026-04-22 15:01 24.90534 56.19810 10061 ft 306 kts 298°
2026-04-22 15:02 24.91618 56.17793 10061 ft 306 kts 298°
2026-04-22 15:02 24.92631 56.15728 10054 ft 305 kts 291°
2026-04-22 15:02 24.93416 56.13567 10061 ft 304 kts 288°
2026-04-22 15:02 24.94127 56.11383 9988 ft 304 kts 287°
2026-04-22 15:03 24.94836 56.09176 9554 ft 306 kts 287°
2026-04-22 15:03 24.95552 56.06977 9046 ft 304 kts 288°
2026-04-22 15:03 24.96270 56.04801 8567 ft 300 kts 288°
2026-04-22 15:03 24.96985 56.02660 8233 ft 295 kts 288°
2026-04-22 15:04 24.97695 56.00548 8162 ft 294 kts 288°
2026-04-22 15:04 24.98405 55.98441 8069 ft 293 kts 288°
2026-04-22 15:04 24.99121 55.96319 7662 ft 295 kts 288°
2026-04-22 15:04 24.99823 55.94251 7176 ft 288 kts 288°
2026-04-22 15:05 25.00514 55.92215 6704 ft 280 kts 288°
2026-04-22 15:05 25.01188 55.90231 6275 ft 272 kts 288°
2026-04-22 15:05 25.01828 55.88347 6139 ft 252 kts 288°
2026-04-22 15:05 25.02435 55.86557 6052 ft 243 kts 288°
2026-04-22 15:06 25.02826 55.85403 6036 ft 242 kts 288°
2026-04-22 15:06 25.03611 55.83081 6036 ft 241 kts 288°
2026-04-22 15:06 25.04202 55.81332 5972 ft 247 kts 288°
2026-04-22 15:06 25.04796 55.79574 5541 ft 246 kts 288°
2026-04-22 15:07 25.05384 55.77837 5050 ft 238 kts 288°
2026-04-22 15:07 25.05954 55.76155 4595 ft 231 kts 288°
2026-04-22 15:07 25.06505 55.74525 4230 ft 219 kts 289°
2026-04-22 15:07 25.07028 55.72980 4137 ft 211 kts 289°
2026-04-22 15:08 25.07523 55.71515 4129 ft 197 kts 288°
2026-04-22 15:08 25.07995 55.70116 4059 ft 194 kts 288°
2026-04-22 15:08 25.08461 55.68733 4026 ft 191 kts 288°
2026-04-22 15:08 25.08923 55.67363 4016 ft 191 kts 288°
2026-04-22 15:09 25.09385 55.65993 4023 ft 191 kts 288°
2026-04-22 15:09 25.09859 55.64625 4015 ft 191 kts 291°
2026-04-22 15:09 25.10458 55.63317 4023 ft 191 kts 296°
2026-04-22 15:09 25.11119 55.62050 4006 ft 190 kts 297°
2026-04-22 15:10 25.11776 55.60843 4023 ft 180 kts 298°
2026-04-22 15:10 25.12425 55.59663 3857 ft 179 kts 298°
2026-04-22 15:10 25.13069 55.58492 3385 ft 179 kts 299°
2026-04-22 15:10 25.13717 55.57326 2932 ft 177 kts 300°
2026-04-22 15:11 25.14358 55.56166 2449 ft 177 kts 301°
2026-04-22 15:11 25.14989 55.55025 2160 ft 170 kts 302°
2026-04-22 15:11 25.15584 55.53951 2110 ft 156 kts 302°
2026-04-22 15:11 25.16136 55.52954 2047 ft 150 kts 302°
2026-04-22 15:12 25.16668 55.51992 2030 ft 145 kts 302°
2026-04-22 15:12 25.17197 55.51037 2028 ft 146 kts 302°
2026-04-22 15:12 25.17737 55.50080 2010 ft 148 kts 303°
2026-04-22 15:12 25.18269 55.49122 1924 ft 147 kts 302°
2026-04-22 15:13 25.18786 55.48131 1756 ft 146 kts 301°
2026-04-22 15:13 25.19284 55.47162 1515 ft 144 kts 304°
2026-04-22 15:13 25.19792 55.46233 1256 ft 142 kts 306°
2026-04-22 15:13 25.20336 55.45329 1099 ft 142 kts 307°
2026-04-22 15:14 25.20877 55.44398 1004 ft 145 kts 304°
2026-04-22 15:14 25.21397 55.43442 888 ft 145 kts 302°
2026-04-22 15:14 25.21912 55.42488 638 ft 143 kts 304°
2026-04-22 15:14 25.22433 55.41579 454 ft 138 kts 303°
2026-04-22 15:15 25.22944 55.40655 325 ft 144 kts 303°
2026-04-22 15:15 25.23469 55.39709 116 ft 144 kts 303°
2026-04-22 15:15 25.23989 55.38807 27 ft 127 kts 302°
2026-04-22 15:15 25.24341 55.38148 27 ft 63 kts 302°
2026-04-22 15:16 25.24419 55.37904 27 ft 18 kts 244°
2026-04-22 15:16 25.24348 55.37831 27 ft 0 kts 215°
2026-04-22 15:16 25.24344 55.37828 27 ft 1 kts 215°
2026-04-22 15:16 25.24332 55.37819 27 ft 3 kts 214°
2026-04-22 15:17 25.24321 55.37810 27 ft 3 kts 213°
2026-04-22 15:17 25.24296 55.37793 27 ft 5 kts 212°
2026-04-22 15:17 25.24265 55.37773 27 ft 6 kts 210°
2026-04-22 15:17 25.24213 55.37736 27 ft 7 kts 214°
2026-04-22 15:18 25.24167 55.37704 27 ft 8 kts 212°
2026-04-22 15:18 25.24115 55.37668 27 ft 9 kts 211°
2026-04-22 15:18 25.24056 55.37629 27 ft 10 kts 211°
2026-04-22 15:18 25.24016 55.37598 27 ft 11 kts 221°
2026-04-22 15:19 25.23976 55.37528 27 ft 11 kts 254°
2026-04-22 15:19 25.23985 55.37444 27 ft 11 kts 295°
2026-04-22 15:19 25.24022 55.37367 27 ft 11 kts 301°
2026-04-22 15:19 25.24064 55.37291 27 ft 12 kts 303°
2026-04-22 15:20 25.24110 55.37210 27 ft 12 kts 300°
2026-04-22 15:20 25.24154 55.37127 27 ft 13 kts 301°
2026-04-22 15:20 25.24201 55.37039 27 ft 14 kts 301°
2026-04-22 15:20 25.24245 55.36963 27 ft 8 kts 302°
2026-04-22 15:21 25.24276 55.36908 27 ft 9 kts 301°
2026-04-22 15:21 25.24302 55.36885 27 ft 4 kts 352°
2026-04-22 15:21 25.24329 55.36900 28 ft 5 kts 32°
2026-04-22 15:21 25.24360 55.36922 27 ft 6 kts 33°
2026-04-22 15:22 25.24365 55.36926 27 ft 0 kts 33°